AFL1358 UUEE-UWSG

Flight info

Callsign AFL1358
Flight time 1h 44m
Altitude 35000
Route TOGMO3J TOGMO M56 PISAR T385 SOKUR SOKUR1G
Aircraft B738/M-SDE2E3FGHIRWXY/LB1

Departure

Time 2026-04-30 09:12
Airport Sheremetyevo International Airport (UUEE)

Arrival

Time 2026-04-30 10:56
Airport Gagarin International Airport (UWSG)
Time Latitude Longitude Altitude Speed Heading
2026-04-30 08:30 55.97976 37.42174 614 ft 0 kts 75°
2026-04-30 09:06 55.97977 37.42179 614 ft 1 kts 75°
2026-04-30 09:06 55.97981 37.42225 614 ft 6 kts 87°
2026-04-30 09:06 55.97945 37.42312 612 ft 12 kts 159°
2026-04-30 09:07 55.97857 37.42359 612 ft 11 kts 138°
2026-04-30 09:07 55.97846 37.42460 612 ft 10 kts 72°
2026-04-30 09:07 55.97873 37.42610 609 ft 15 kts 75°
2026-04-30 09:07 55.97900 37.42802 610 ft 13 kts 75°
2026-04-30 09:08 55.97925 37.42978 610 ft 16 kts 75°
2026-04-30 09:08 55.97958 37.43194 611 ft 19 kts 74°
2026-04-30 09:08 55.97990 37.43411 615 ft 14 kts 75°
2026-04-30 09:08 55.98018 37.43600 617 ft 16 kts 75°
2026-04-30 09:09 55.98048 37.43803 619 ft 16 kts 74°
2026-04-30 09:09 55.98054 37.43948 619 ft 13 kts 114°
2026-04-30 09:09 55.97957 37.44020 618 ft 18 kts 168°
2026-04-30 09:09 55.97863 37.44060 616 ft 0 kts 165°
2026-04-30 09:10 55.97844 37.44069 615 ft 5 kts 165°
2026-04-30 09:10 55.97789 37.44094 614 ft 10 kts 165°
2026-04-30 09:10 55.97702 37.44134 612 ft 15 kts 163°
2026-04-30 09:10 55.97593 37.44191 612 ft 17 kts 168°
2026-04-30 09:11 55.97513 37.44062 610 ft 13 kts 251°
2026-04-30 09:11 55.97495 37.43961 608 ft 24 kts 253°
2026-04-30 09:11 55.97394 37.43234 599 ft 93 kts 255°
2026-04-30 09:11 55.97179 37.41788 613 ft 146 kts 256°
2026-04-30 09:12 55.96872 37.39845 651 ft 182 kts 256°
2026-04-30 09:12 55.96516 37.37511 1070 ft 202 kts 251°
2026-04-30 09:12 55.95892 37.35274 1864 ft 204 kts 235°
2026-04-30 09:12 55.95028 37.33382 2595 ft 206 kts 232°
2026-04-30 09:13 55.94115 37.31273 3054 ft 219 kts 236°
2026-04-30 09:13 55.93243 37.29005 3603 ft 228 kts 238°
2026-04-30 09:13 55.92381 37.26688 4400 ft 225 kts 238°
2026-04-30 09:13 55.91513 37.24359 5142 ft 226 kts 237°
2026-04-30 09:14 55.90648 37.22054 5878 ft 226 kts 236°
2026-04-30 09:14 55.89784 37.19764 6613 ft 226 kts 236°
2026-04-30 09:14 55.88940 37.17416 7077 ft 230 kts 241°
2026-04-30 09:14 55.88208 37.14732 7159 ft 254 kts 246°
2026-04-30 09:15 55.87516 37.11774 7166 ft 265 kts 248°
2026-04-30 09:15 55.86831 37.08675 7174 ft 268 kts 253°
2026-04-30 09:15 55.86486 37.05432 7200 ft 272 kts 272°
2026-04-30 09:15 55.86834 37.02086 7795 ft 275 kts 288°
2026-04-30 09:16 55.87414 36.98812 8171 ft 277 kts 289°
2026-04-30 09:16 55.87980 36.95589 8199 ft 273 kts 289°
2026-04-30 09:16 55.88524 36.92379 8204 ft 271 kts 288°
2026-04-30 09:16 55.89058 36.89152 8203 ft 271 kts 288°
2026-04-30 09:17 55.89578 36.85974 8204 ft 270 kts 288°
2026-04-30 09:17 55.90104 36.82744 8199 ft 270 kts 288°
2026-04-30 09:17 55.90625 36.79542 8198 ft 270 kts 288°
2026-04-30 09:17 55.91061 36.76294 8194 ft 271 kts 279°
2026-04-30 09:18 55.90979 36.72899 8378 ft 285 kts 259°
2026-04-30 09:18 55.90479 36.69532 9312 ft 281 kts 256°
2026-04-30 09:18 55.89940 36.66214 10068 ft 283 kts 256°
2026-04-30 09:18 55.89410 36.62806 10807 ft 287 kts 257°
2026-04-30 09:19 55.88909 36.59396 11556 ft 290 kts 258°
2026-04-30 09:19 55.88418 36.55935 12301 ft 294 kts 258°
2026-04-30 09:19 55.87789 36.52461 12969 ft 301 kts 248°
2026-04-30 09:19 55.86603 36.49380 13192 ft 307 kts 224°
2026-04-30 09:20 55.84791 36.47425 13197 ft 307 kts 199°
2026-04-30 09:20 55.82689 36.46804 13201 ft 308 kts 180°
2026-04-30 09:20 55.80565 36.47112 13207 ft 308 kts 172°
2026-04-30 09:20 55.78467 36.47665 13203 ft 307 kts 171°
2026-04-30 09:21 55.76365 36.48481 13203 ft 307 kts 161°
2026-04-30 09:21 55.74410 36.50117 13480 ft 318 kts 149°
2026-04-30 09:21 55.72568 36.52133 14452 ft 313 kts 146°
2026-04-30 09:21 55.70740 36.54222 15079 ft 319 kts 146°
2026-04-30 09:22 55.68854 36.56361 15217 ft 320 kts 147°
2026-04-30 09:22 55.66985 36.58437 15204 ft 315 kts 147°
2026-04-30 09:22 55.65129 36.60464 15209 ft 315 kts 148°
2026-04-30 09:22 55.63279 36.62499 15207 ft 316 kts 146°
2026-04-30 09:23 55.61533 36.64827 15205 ft 314 kts 136°
2026-04-30 09:23 55.60086 36.67722 15215 ft 324 kts 124°
2026-04-30 09:23 55.58808 36.71104 15199 ft 333 kts 120°
2026-04-30 09:23 55.57613 36.74601 15203 ft 332 kts 118°
2026-04-30 09:24 55.56447 36.78112 15204 ft 332 kts 118°
2026-04-30 09:24 55.55276 36.81611 15206 ft 333 kts 119°
2026-04-30 09:24 55.54100 36.85068 15203 ft 332 kts 120°
2026-04-30 09:24 55.52900 36.88548 15210 ft 332 kts 120°
2026-04-30 09:25 55.51700 36.92004 15200 ft 333 kts 120°
2026-04-30 09:25 55.50477 36.95514 15199 ft 332 kts 120°
2026-04-30 09:25 55.49285 36.98928 15201 ft 332 kts 120°
2026-04-30 09:25 55.48074 37.02387 15198 ft 332 kts 120°
2026-04-30 09:26 55.46851 37.05876 15202 ft 332 kts 120°
2026-04-30 09:26 55.45639 37.09319 15200 ft 332 kts 121°
2026-04-30 09:26 55.44336 37.12615 15203 ft 333 kts 127°
2026-04-30 09:26 55.42700 37.15488 15197 ft 335 kts 141°
2026-04-30 09:27 55.40749 37.17788 15202 ft 335 kts 148°
2026-04-30 09:27 55.38747 37.19797 15198 ft 335 kts 150°
2026-04-30 09:27 55.36709 37.21743 15203 ft 336 kts 151°
2026-04-30 09:27 55.34637 37.23717 15209 ft 335 kts 150°
2026-04-30 09:28 55.32611 37.25674 15192 ft 334 kts 150°
2026-04-30 09:28 55.30589 37.27652 15196 ft 335 kts 150°
2026-04-30 09:28 55.28568 37.29642 15196 ft 335 kts 150°
2026-04-30 09:28 55.26546 37.31640 15197 ft 334 kts 150°
2026-04-30 09:29 55.24513 37.33658 15197 ft 335 kts 149°
2026-04-30 09:29 55.22596 37.35905 15194 ft 334 kts 140°
2026-04-30 09:29 55.20999 37.38830 15195 ft 334 kts 124°
2026-04-30 09:29 55.19778 37.42283 15201 ft 333 kts 117°
2026-04-30 09:30 55.18701 37.45820 15197 ft 331 kts 116°
2026-04-30 09:30 55.17655 37.49397 15198 ft 330 kts 115°
2026-04-30 09:30 55.16610 37.52959 15203 ft 330 kts 115°
2026-04-30 09:30 55.15550 37.56520 15196 ft 330 kts 116°
2026-04-30 09:31 55.14491 37.60049 15198 ft 330 kts 115°
2026-04-30 09:31 55.13518 37.63707 15200 ft 330 kts 110°
2026-04-30 09:31 55.12806 37.67517 15311 ft 339 kts 103°
2026-04-30 09:31 55.12314 37.71493 16259 ft 336 kts 99°
2026-04-30 09:32 55.11910 37.75538 16980 ft 341 kts 98°
2026-04-30 09:32 55.11531 37.79652 17204 ft 345 kts 98°
2026-04-30 09:32 55.11152 37.83748 17197 ft 342 kts 98°
2026-04-30 09:32 55.10677 37.87775 17204 ft 341 kts 104°
2026-04-30 09:33 55.09813 37.91616 17208 ft 345 kts 119°
2026-04-30 09:33 55.08366 37.95007 17731 ft 353 kts 132°
2026-04-30 09:33 55.06692 37.98100 18656 ft 350 kts 134°
2026-04-30 09:33 55.04985 38.01128 19159 ft 357 kts 135°
2026-04-30 09:34 55.03251 38.04182 19198 ft 356 kts 135°
2026-04-30 09:34 55.01517 38.07250 19192 ft 352 kts 135°
2026-04-30 09:34 54.99823 38.10263 19197 ft 352 kts 134°
2026-04-30 09:34 54.98105 38.13334 19193 ft 353 kts 134°
2026-04-30 09:35 54.96410 38.16370 19193 ft 354 kts 134°
2026-04-30 09:35 54.94687 38.19458 19194 ft 354 kts 134°
2026-04-30 09:35 54.92968 38.22534 19185 ft 355 kts 134°
2026-04-30 09:35 54.91272 38.25563 19193 ft 355 kts 134°
2026-04-30 09:36 54.89543 38.28643 19189 ft 355 kts 134°
2026-04-30 09:36 54.87831 38.31690 19190 ft 355 kts 134°
2026-04-30 09:36 54.86153 38.34829 19188 ft 355 kts 131°
2026-04-30 09:36 54.84631 38.38216 19211 ft 360 kts 124°
2026-04-30 09:37 54.83286 38.41888 19846 ft 364 kts 120°
2026-04-30 09:37 54.82050 38.45622 20689 ft 362 kts 119°
2026-04-30 09:37 54.80827 38.49455 21165 ft 368 kts 119°
2026-04-30 09:37 54.79595 38.53351 21188 ft 368 kts 119°
2026-04-30 09:38 54.78363 38.57213 21189 ft 364 kts 120°
2026-04-30 09:38 54.77049 38.60968 21187 ft 364 kts 126°
2026-04-30 09:38 54.75422 38.64299 21199 ft 367 kts 137°
2026-04-30 09:38 54.73423 38.67035 21708 ft 371 kts 148°
2026-04-30 09:39 54.71272 38.69395 22465 ft 369 kts 150°
2026-04-30 09:39 54.69039 38.71666 23084 ft 372 kts 152°
2026-04-30 09:39 54.66826 38.73872 23699 ft 374 kts 152°
2026-04-30 09:39 54.64572 38.76122 24229 ft 378 kts 152°
2026-04-30 09:40 54.62309 38.78402 24771 ft 381 kts 152°
2026-04-30 09:40 54.60007 38.80742 25261 ft 385 kts 151°
2026-04-30 09:40 54.57716 38.83085 25780 ft 388 kts 151°
2026-04-30 09:40 54.55409 38.85456 26262 ft 391 kts 150°
2026-04-30 09:41 54.53056 38.87879 26731 ft 395 kts 150°
2026-04-30 09:41 54.50690 38.90317 27218 ft 397 kts 150°
2026-04-30 09:41 54.48309 38.92771 27677 ft 400 kts 150°
2026-04-30 09:41 54.45910 38.95238 28123 ft 403 kts 150°
2026-04-30 09:42 54.43515 38.97781 28514 ft 408 kts 147°
2026-04-30 09:42 54.41252 39.00748 28933 ft 411 kts 139°
2026-04-30 09:42 54.39284 39.04308 29292 ft 416 kts 128°
2026-04-30 09:42 54.37643 39.08434 29688 ft 418 kts 120°
2026-04-30 09:43 54.36308 39.12825 30063 ft 420 kts 115°
2026-04-30 09:43 54.35106 39.17422 30384 ft 423 kts 112°
2026-04-30 09:43 54.33977 39.22075 30722 ft 425 kts 111°
2026-04-30 09:43 54.32863 39.26809 31049 ft 428 kts 111°
2026-04-30 09:44 54.31735 39.31628 31321 ft 432 kts 111°
2026-04-30 09:44 54.30603 39.36427 31554 ft 432 kts 111°
2026-04-30 09:44 54.29454 39.41256 31746 ft 434 kts 111°
2026-04-30 09:44 54.28291 39.46102 31938 ft 435 kts 111°
2026-04-30 09:45 54.27122 39.50935 32118 ft 437 kts 111°
2026-04-30 09:45 54.25932 39.55825 32315 ft 438 kts 112°
2026-04-30 09:45 54.24757 39.60634 32481 ft 440 kts 112°
2026-04-30 09:45 54.23547 39.65565 32674 ft 441 kts 112°
2026-04-30 09:46 54.22349 39.70432 32862 ft 444 kts 113°
2026-04-30 09:46 54.21167 39.75219 33075 ft 445 kts 113°
2026-04-30 09:46 54.19959 39.80102 33277 ft 446 kts 113°
2026-04-30 09:46 54.18750 39.84976 33479 ft 448 kts 113°
2026-04-30 09:47 54.17527 39.89897 33742 ft 450 kts 113°
2026-04-30 09:47 54.16309 39.94786 33994 ft 452 kts 113°
2026-04-30 09:47 54.15086 39.99686 34249 ft 454 kts 113°
2026-04-30 09:47 54.13847 40.04630 34483 ft 457 kts 113°
2026-04-30 09:48 54.12599 40.09607 34741 ft 458 kts 113°
2026-04-30 09:48 54.11411 40.14613 35085 ft 456 kts 110°
2026-04-30 09:48 54.09452 40.24890 35174 ft 457 kts 106°
2026-04-30 09:49 54.07742 40.35162 35173 ft 454 kts 105°
2026-04-30 09:49 54.06014 40.45568 35170 ft 455 kts 106°
2026-04-30 09:50 54.04244 40.55936 35165 ft 455 kts 106°
2026-04-30 09:50 54.02440 40.66270 35164 ft 455 kts 107°
2026-04-30 09:51 54.00625 40.76528 35164 ft 455 kts 108°
2026-04-30 09:51 53.98806 40.86723 35161 ft 455 kts 108°
2026-04-30 09:52 53.96954 40.97032 35160 ft 455 kts 108°
2026-04-30 09:52 53.95116 41.07272 35157 ft 455 kts 107°
2026-04-30 09:53 53.93402 41.17553 35157 ft 454 kts 106°
2026-04-30 09:53 53.91740 41.27825 35158 ft 454 kts 106°
2026-04-30 09:54 53.90064 41.38112 35157 ft 455 kts 106°
2026-04-30 09:54 53.88359 41.48434 35159 ft 456 kts 106°
2026-04-30 09:55 53.86653 41.58655 35158 ft 455 kts 106°
2026-04-30 09:55 53.84919 41.68957 35159 ft 456 kts 107°
2026-04-30 09:56 53.83174 41.79250 35159 ft 455 kts 107°
2026-04-30 09:56 53.81421 41.89489 35158 ft 455 kts 108°
2026-04-30 09:57 53.79656 41.99722 35159 ft 455 kts 108°
2026-04-30 09:57 53.77884 42.09944 35155 ft 455 kts 108°
2026-04-30 09:58 53.76102 42.20160 35148 ft 455 kts 108°
2026-04-30 09:58 53.74306 42.30401 35145 ft 456 kts 108°
2026-04-30 09:59 53.70697 42.50815 35147 ft 456 kts 108°
2026-04-30 10:00 53.67970 42.66089 35146 ft 455 kts 109°
2026-04-30 10:01 53.65415 42.81529 35144 ft 456 kts 107°
2026-04-30 10:02 53.63023 42.97044 35140 ft 457 kts 107°
2026-04-30 10:02 53.61407 43.07375 35135 ft 457 kts 107°
2026-04-30 10:03 53.59774 43.17662 35132 ft 456 kts 107°
2026-04-30 10:03 53.58125 43.27938 35127 ft 456 kts 107°
2026-04-30 10:04 53.56466 43.38186 35129 ft 457 kts 107°
2026-04-30 10:04 53.54784 43.48503 35129 ft 456 kts 107°
2026-04-30 10:05 53.53104 43.58748 35133 ft 457 kts 108°
2026-04-30 10:05 53.51411 43.69014 35138 ft 457 kts 108°
2026-04-30 10:06 53.49702 43.79225 35139 ft 456 kts 110°
2026-04-30 10:06 53.47279 43.89006 35137 ft 450 kts 124°
2026-04-30 10:07 53.43662 43.97369 35136 ft 447 kts 132°
2026-04-30 10:07 53.39673 44.05314 35134 ft 446 kts 134°
2026-04-30 10:08 53.35625 44.13211 35137 ft 446 kts 133°
2026-04-30 10:08 53.31626 44.21070 35136 ft 446 kts 133°
2026-04-30 10:09 53.27625 44.28984 35137 ft 446 kts 133°
2026-04-30 10:09 53.23662 44.36843 35136 ft 445 kts 133°
2026-04-30 10:10 53.19699 44.44698 35136 ft 445 kts 133°
2026-04-30 10:10 53.15705 44.52596 35141 ft 444 kts 133°
2026-04-30 10:11 53.11753 44.60394 35140 ft 444 kts 133°
2026-04-30 10:11 53.07755 44.68258 35142 ft 443 kts 134°
2026-04-30 10:12 53.03798 44.76019 35138 ft 442 kts 134°
2026-04-30 10:12 52.99816 44.83799 35138 ft 443 kts 134°
2026-04-30 10:13 52.95839 44.91523 34956 ft 437 kts 135°
2026-04-30 10:13 52.93779 44.95189 34588 ft 430 kts 140°
2026-04-30 10:13 52.91529 44.98376 34052 ft 425 kts 148°
2026-04-30 10:13 52.89084 45.01031 33446 ft 425 kts 153°
2026-04-30 10:14 52.86509 45.03413 32918 ft 424 kts 156°
2026-04-30 10:14 52.83879 45.05659 32448 ft 422 kts 157°
2026-04-30 10:14 52.78678 45.09948 31543 ft 421 kts 158°
2026-04-30 10:15 52.76054 45.12110 31060 ft 421 kts 158°
2026-04-30 10:15 52.73481 45.14244 30548 ft 420 kts 158°
2026-04-30 10:15 52.70876 45.16429 29979 ft 419 kts 158°
2026-04-30 10:15 52.68324 45.18597 29465 ft 416 kts 158°
2026-04-30 10:16 52.65755 45.20794 28978 ft 412 kts 158°
2026-04-30 10:16 52.63255 45.22938 28495 ft 409 kts 159°
2026-04-30 10:16 52.60750 45.25086 27985 ft 405 kts 159°
2026-04-30 10:17 52.55814 45.29317 26954 ft 395 kts 159°
2026-04-30 10:17 52.51116 45.33354 26015 ft 364 kts 160°
2026-04-30 10:17 52.48933 45.35236 25574 ft 348 kts 160°
2026-04-30 10:18 52.46836 45.37034 25158 ft 337 kts 161°
2026-04-30 10:18 52.44741 45.38798 24748 ft 346 kts 161°
2026-04-30 10:18 52.42585 45.40594 24290 ft 349 kts 161°
2026-04-30 10:19 52.38423 45.44121 23450 ft 329 kts 161°
2026-04-30 10:19 52.36351 45.45857 23038 ft 342 kts 161°
2026-04-30 10:19 52.34233 45.47618 22593 ft 344 kts 160°
2026-04-30 10:19 52.32160 45.49362 22160 ft 331 kts 160°
2026-04-30 10:20 52.30157 45.51059 21764 ft 324 kts 160°
2026-04-30 10:20 52.26032 45.54497 20909 ft 338 kts 160°
2026-04-30 10:20 52.23969 45.56229 20469 ft 325 kts 160°
2026-04-30 10:21 52.22004 45.57889 20056 ft 317 kts 160°
2026-04-30 10:21 52.20035 45.59531 19640 ft 329 kts 160°
2026-04-30 10:21 52.17962 45.61244 19193 ft 332 kts 159°
2026-04-30 10:21 52.15953 45.62918 18753 ft 321 kts 159°
2026-04-30 10:22 52.14007 45.64552 18347 ft 312 kts 159°
2026-04-30 10:22 52.12057 45.66172 17931 ft 321 kts 160°
2026-04-30 10:22 52.10059 45.67820 17490 ft 323 kts 159°
2026-04-30 10:22 52.08105 45.69444 17062 ft 311 kts 159°
2026-04-30 10:23 52.06208 45.71028 16652 ft 308 kts 159°
2026-04-30 10:23 52.04279 45.72619 16242 ft 318 kts 159°
2026-04-30 10:23 52.02286 45.74258 15798 ft 318 kts 159°
2026-04-30 10:23 52.00381 45.75839 15505 ft 302 kts 159°
2026-04-30 10:24 51.98566 45.77326 15353 ft 281 kts 161°
2026-04-30 10:24 51.96800 45.78518 15131 ft 279 kts 166°
2026-04-30 10:24 51.94933 45.79517 14723 ft 287 kts 168°
2026-04-30 10:24 51.93028 45.80467 14350 ft 283 kts 168°
2026-04-30 10:25 51.91190 45.81402 13995 ft 271 kts 168°
2026-04-30 10:25 51.89411 45.82233 13547 ft 264 kts 172°
2026-04-30 10:25 51.87644 45.82745 12984 ft 259 kts 176°
2026-04-30 10:25 51.85892 45.83147 12681 ft 247 kts 175°
2026-04-30 10:26 51.84244 45.83573 12407 ft 235 kts 174°
2026-04-30 10:26 51.82668 45.84031 12182 ft 224 kts 174°
2026-04-30 10:26 51.81187 45.84479 11896 ft 215 kts 174°
2026-04-30 10:26 51.79725 45.84922 11587 ft 211 kts 173°
2026-04-30 10:27 51.78315 45.85352 11459 ft 201 kts 173°
2026-04-30 10:27 51.76963 45.85762 11228 ft 197 kts 173°
2026-04-30 10:27 51.75632 45.86164 10978 ft 192 kts 173°
2026-04-30 10:27 51.74341 45.86553 10806 ft 185 kts 173°
2026-04-30 10:28 51.73090 45.86934 10557 ft 182 kts 172°
2026-04-30 10:28 51.71867 45.87305 10306 ft 177 kts 173°
2026-04-30 10:28 51.70658 45.87669 10018 ft 174 kts 172°
2026-04-30 10:28 51.69500 45.88022 9858 ft 167 kts 171°
2026-04-30 10:29 51.68390 45.88650 9714 ft 175 kts 148°
2026-04-30 10:29 51.67698 45.90272 9527 ft 190 kts 106°
2026-04-30 10:29 51.67846 45.92421 9396 ft 201 kts 70°
2026-04-30 10:29 51.68663 45.94330 8894 ft 218 kts 50°
2026-04-30 10:30 51.69756 45.96104 8072 ft 234 kts 48°
2026-04-30 10:30 51.70871 45.97994 7628 ft 228 kts 53°
2026-04-30 10:30 51.71684 46.00077 7287 ft 216 kts 75°
2026-04-30 10:30 51.71801 46.02352 7022 ft 198 kts 101°
2026-04-30 10:31 51.71614 46.04482 6779 ft 187 kts 99°
2026-04-30 10:31 51.71539 46.06550 6503 ft 183 kts 95°
2026-04-30 10:31 51.71508 46.08626 6129 ft 192 kts 93°
2026-04-30 10:31 51.71455 46.10832 5629 ft 201 kts 95°
2026-04-30 10:32 51.71395 46.13081 5104 ft 208 kts 94°
2026-04-30 10:32 51.71335 46.15452 4539 ft 214 kts 94°
2026-04-30 10:32 51.71262 46.17838 4026 ft 217 kts 94°
2026-04-30 10:32 51.71184 46.20284 3512 ft 219 kts 95°
2026-04-30 10:33 51.71075 46.22745 2847 ft 229 kts 96°
2026-04-30 10:33 51.70909 46.25314 2291 ft 232 kts 98°
2026-04-30 10:33 51.70695 46.27881 1750 ft 234 kts 100°
2026-04-30 10:33 51.70411 46.30460 1201 ft 236 kts 103°
2026-04-30 10:34 51.70063 46.33042 676 ft 235 kts 104°
2026-04-30 10:34 51.69697 46.35500 663 ft 212 kts 105°
2026-04-30 10:34 51.69328 46.37695 718 ft 194 kts 107°
2026-04-30 10:34 51.68935 46.39695 713 ft 183 kts 110°
2026-04-30 10:35 51.68474 46.41611 717 ft 185 kts 115°
2026-04-30 10:35 51.67889 46.43458 717 ft 184 kts 129°
2026-04-30 10:35 51.66832 46.44505 710 ft 183 kts 175°
2026-04-30 10:35 51.65634 46.43962 718 ft 185 kts 219°
2026-04-30 10:36 51.64764 46.42408 713 ft 187 kts 230°
2026-04-30 10:36 51.64001 46.40730 699 ft 190 kts 234°
2026-04-30 10:36 51.63303 46.38892 767 ft 188 kts 240°
2026-04-30 10:36 51.62748 46.37000 924 ft 187 kts 247°
2026-04-30 10:37 51.62321 46.34997 1078 ft 192 kts 253°
2026-04-30 10:37 51.62046 46.32899 1226 ft 190 kts 261°
2026-04-30 10:37 51.61957 46.30770 1385 ft 192 kts 269°
2026-04-30 10:37 51.62066 46.28635 1573 ft 191 kts 278°
2026-04-30 10:38 51.62405 46.26548 1862 ft 196 kts 289°
2026-04-30 10:38 51.62930 46.24519 2193 ft 196 kts 295°
2026-04-30 10:38 51.63599 46.22609 2517 ft 198 kts 304°
2026-04-30 10:38 51.64498 46.20914 2840 ft 199 kts 319°
2026-04-30 10:39 51.65644 46.19692 3144 ft 202 kts 333°
2026-04-30 10:39 51.66956 46.18695 3180 ft 219 kts 332°
2026-04-30 10:39 51.68376 46.17375 3160 ft 246 kts 326°
2026-04-30 10:39 51.69765 46.15859 3165 ft 233 kts 324°
2026-04-30 10:40 51.71029 46.14421 3154 ft 211 kts 323°
2026-04-30 10:40 51.72142 46.13021 3163 ft 199 kts 319°
2026-04-30 10:40 51.73196 46.11588 3167 ft 198 kts 318°
2026-04-30 10:40 51.74253 46.10136 3165 ft 200 kts 319°
2026-04-30 10:41 51.75306 46.08717 3164 ft 199 kts 319°
2026-04-30 10:41 51.76364 46.07296 3164 ft 199 kts 320°
2026-04-30 10:41 51.77439 46.05847 3164 ft 199 kts 319°
2026-04-30 10:41 51.78492 46.04422 3164 ft 200 kts 319°
2026-04-30 10:42 51.79559 46.02976 3163 ft 200 kts 320°
2026-04-30 10:42 51.80624 46.01537 3163 ft 197 kts 319°
2026-04-30 10:42 51.81670 46.00124 3166 ft 200 kts 319°
2026-04-30 10:42 51.82744 45.98670 3162 ft 199 kts 320°
2026-04-30 10:43 51.83810 45.97225 3172 ft 200 kts 319°
2026-04-30 10:43 51.84878 45.95779 3162 ft 201 kts 319°
2026-04-30 10:43 51.85945 45.94332 3181 ft 202 kts 319°
2026-04-30 10:43 51.87029 45.92863 3163 ft 201 kts 318°
2026-04-30 10:44 51.88100 45.91418 3164 ft 200 kts 318°
2026-04-30 10:44 51.89159 45.89982 3160 ft 200 kts 319°
2026-04-30 10:44 51.90228 45.88535 3161 ft 200 kts 319°
2026-04-30 10:44 51.91286 45.87109 3161 ft 199 kts 318°
2026-04-30 10:45 51.92346 45.85678 3162 ft 201 kts 318°
2026-04-30 10:45 51.93410 45.84225 3159 ft 200 kts 318°
2026-04-30 10:45 51.94471 45.82776 3160 ft 199 kts 318°
2026-04-30 10:45 51.95532 45.81312 3160 ft 201 kts 316°
2026-04-30 10:46 51.96407 45.79602 3159 ft 200 kts 294°
2026-04-30 10:46 51.96735 45.77447 3161 ft 196 kts 268°
2026-04-30 10:46 51.96581 45.75292 3154 ft 193 kts 254°
2026-04-30 10:46 51.96075 45.73304 3155 ft 189 kts 232°
2026-04-30 10:47 51.95126 45.71873 3164 ft 188 kts 210°
2026-04-30 10:47 51.93960 45.70969 3158 ft 187 kts 196°
2026-04-30 10:47 51.92668 45.70695 3156 ft 187 kts 173°
2026-04-30 10:47 51.91409 45.71282 2988 ft 191 kts 154°
2026-04-30 10:48 51.90297 45.72466 2744 ft 192 kts 138°
2026-04-30 10:48 51.89524 45.74162 2720 ft 189 kts 117°
2026-04-30 10:48 51.88974 45.76113 2713 ft 191 kts 117°
2026-04-30 10:48 51.88392 45.78006 2708 ft 188 kts 120°
2026-04-30 10:49 51.87779 45.79881 2715 ft 191 kts 120°
2026-04-30 10:49 51.87163 45.81794 2713 ft 191 kts 121°
2026-04-30 10:49 51.86360 45.83468 2707 ft 187 kts 142°
2026-04-30 10:49 51.85257 45.84491 2713 ft 186 kts 160°
2026-04-30 10:50 51.84019 45.85167 2713 ft 185 kts 163°
2026-04-30 10:50 51.82792 45.85832 2711 ft 186 kts 158°
2026-04-30 10:50 51.81672 45.86882 2620 ft 189 kts 145°
2026-04-30 10:50 51.80644 45.88164 2428 ft 186 kts 144°
2026-04-30 10:51 51.79630 45.89368 2317 ft 177 kts 146°
2026-04-30 10:51 51.78644 45.90476 2258 ft 168 kts 147°
2026-04-30 10:51 51.77700 45.91528 2206 ft 164 kts 146°
2026-04-30 10:51 51.76769 45.92583 2167 ft 164 kts 146°
2026-04-30 10:52 51.75831 45.93644 2116 ft 165 kts 147°
2026-04-30 10:52 51.74895 45.94695 2065 ft 163 kts 147°
2026-04-30 10:52 51.73967 45.95737 2017 ft 162 kts 147°
2026-04-30 10:52 51.73046 45.96785 1965 ft 163 kts 146°
2026-04-30 10:53 51.72133 45.97886 1910 ft 165 kts 138°
2026-04-30 10:53 51.71589 45.99507 1795 ft 170 kts 96°
2026-04-30 10:53 51.71655 46.01352 1663 ft 165 kts 88°
2026-04-30 10:53 51.71595 46.03149 1475 ft 156 kts 101°
2026-04-30 10:54 51.71508 46.04861 1375 ft 153 kts 93°
2026-04-30 10:54 51.71514 46.06602 1129 ft 157 kts 94°
2026-04-30 10:54 51.71458 46.08307 933 ft 150 kts 96°
2026-04-30 10:54 51.71420 46.09967 720 ft 145 kts 93°
2026-04-30 10:55 51.71416 46.11633 447 ft 153 kts 95°
2026-04-30 10:55 51.71353 46.13312 327 ft 148 kts 92°
2026-04-30 10:55 51.71318 46.14957 107 ft 146 kts 91°
2026-04-30 10:55 51.71286 46.16368 77 ft 93 kts 92°
2026-04-30 10:56 51.71258 46.17337 82 ft 87 kts 94°
2026-04-30 10:56 51.71230 46.18222 87 ft 58 kts 94°
2026-04-30 10:56 51.71213 46.18613 89 ft 11 kts 91°
2026-04-30 10:56 51.71215 46.18638 90 ft 2 kts 61°
2026-04-30 10:57 51.71229 46.18621 90 ft 3 kts 296°
2026-04-30 10:57 51.71233 46.18568 89 ft 8 kts 270°
2026-04-30 10:57 51.71232 46.18391 88 ft 23 kts 268°
2026-04-30 10:57 51.71235 46.18162 86 ft 8 kts 273°
2026-04-30 10:58 51.71239 46.18073 86 ft 18 kts 273°
2026-04-30 10:58 51.71243 46.17820 86 ft 23 kts 272°
2026-04-30 10:58 51.71255 46.17547 83 ft 24 kts 276°
2026-04-30 10:58 51.71326 46.17402 84 ft 0 kts
2026-04-30 10:59 51.71339 46.17405 84 ft 5 kts
2026-04-30 10:59 51.71388 46.17421 85 ft 7 kts 11°
2026-04-30 10:59 51.71431 46.17430 86 ft 5 kts
2026-04-30 10:59 51.71465 46.17433 87 ft 4 kts
2026-04-30 11:00 51.71513 46.17434 88 ft 7 kts 359°
2026-04-30 11:00 51.71562 46.17434 89 ft 6 kts
2026-04-30 11:00 51.71612 46.17433 90 ft 7 kts 349°
2026-04-30 11:00 51.71643 46.17389 90 ft 6 kts 284°
2026-04-30 11:01 51.71643 46.17307 90 ft 8 kts 266°
2026-04-30 11:01 51.71639 46.17214 90 ft 8 kts 266°
2026-04-30 11:01 51.71643 46.17125 90 ft 7 kts 300°
2026-04-30 11:01 51.71684 46.17102 90 ft 6 kts
2026-04-30 11:02 51.71702 46.17104 90 ft 0 kts